Location: Unnamed
(25.2826°S, 57.6099°W)
Time: 23:42:39
(UTC-04:00)

BlueWalker 3 - Pass Details

Date: 22 January 2026
Orbit: 451 x 460 km, 53.2° (Epoch: 18 February)

Event Time Altitude Azimuth Distance (km) Brightness Sun altitude
Exits shadow 04:04:42 10° 6° (N) 1,615 4.3 -15.9°
Reaches altitude 10° 04:04:46 10° 7° (N) 1,597 4.2 -15.9°
Maximum altitude 04:07:29 20° 57° (ENE) 1,110 4.0 -15.3°
Drops below altitude 10° 04:10:15 10° 106° (ESE) 1,617 5.8 -14.8°
Sets 04:12:47 0° 123° (ESE) 2,501 7.5 -14.3°
